Weather History for Eufaula, AL

Change the Weather History Date:

Tuesday, September 11, 2012

  Actual Average (KLSF) Record (KLSF)
Temperature  
Mean Temperature 72 °F -  
Max Temperature 86 °F 85 °F 98 °F (2002)
Min Temperature 59 °F 62 °F 32 °F (1996)
Cooling Degree Days 8    
Growing Degree Days 22 (Base 50)    
Moisture  
Dew Point 60 °F    
Average Humidity 68    
Maximum Humidity 96    
Minimum Humidity 37    
Precipitation  
Precipitation 0.00 in - - ()
Sea Level Pressure  
Sea Level Pressure 30.16 in    
Wind  
Wind Speed 2 mph (East)    
Max Wind Speed 10 mph    
Max Gust Speed 17 mph    
Visibility 10 miles    
Events Rain    
Averages and records for this station are not official NWS values.
T = Trace of Precipitation, MM = Missing Value Source: NWS Daily Summary

Daily Weather History Graph

Daily Weather History Graph

Search for Another Location

Airport:

Trip Planner

Search our weather history database for the weather conditions in past years. The results will help you decide how hot, cold, wet, or windy it might be!

Date:

Astronomy

Sep. 11, 2012 Rise Set
Actual Time 6:22 AM CDT 6:51 PM CDT
Civil Twilight 5:57 AM CDT 7:15 PM CDT
Nautical Twilight 5:28 AM CDT 7:44 PM CDT
Astronomical Twilight 4:59 AM CDT 8:13 PM CDT
Moon 1:52 AM CDT (9/11) 3:49 PM CDT (9/11)
Length of Visible Light 13h 17m
Length of Day
12h 28m
Waning Crescent, 21% of the Moon is Illuminated
Sep 11
Waning Crescent
Sep 15
New
Sep 22
First Quarter
Sep 29
Full
Oct 8
Last Quarter

Hourly Weather History & Observations

Time (CDT) Temp. Heat Index Dew Point Humidity Pressure Visibility Wind Dir Wind Speed Gust Speed Precip Events Conditions
12:58 AM 63.0 °F - 61.0 °F 93% 30.08 in 9.0 mi Calm Calm - N/A   Clear
1:58 AM 62.1 °F - 60.1 °F 93% 30.08 in 10.0 mi Calm Calm - N/A   Clear
2:58 AM 62.1 °F - 60.1 °F 93% 30.09 in 10.0 mi Calm Calm - N/A   Clear
3:58 AM 62.1 °F - 60.1 °F 93% 30.10 in 9.0 mi Calm Calm - N/A   Clear
4:58 AM 61.0 °F - 59.0 °F 93% 30.12 in 10.0 mi Calm Calm - 0.00 in   Clear
5:58 AM 59.0 °F - 57.9 °F 96% 30.14 in 9.0 mi Calm Calm - N/A   Clear
6:58 AM 61.0 °F - 59.0 °F 93% 30.17 in 9.0 mi Calm Calm - 0.00 in Rain Light Rain
7:58 AM 68.0 °F - 62.1 °F 81% 30.19 in 10.0 mi Calm Calm - 0.00 in   Clear
8:58 AM 73.9 °F - 63.0 °F 68% 30.20 in 10.0 mi NE 5.8 mph - N/A   Clear
9:58 AM 78.1 °F - 63.0 °F 60% 30.22 in 10.0 mi Calm Calm - N/A   Clear
10:58 AM 82.0 °F 82.0 °F 57.9 °F 44% 30.21 in 10.0 mi East 8.1 mph 17.3 mph N/A   Clear
11:58 AM 84.9 °F 83.7 °F 55.9 °F 37% 30.19 in 10.0 mi ENE 8.1 mph - N/A   Scattered Clouds
12:58 PM 84.0 °F 82.9 °F 55.0 °F 37% 30.18 in 10.0 mi East 10.4 mph - N/A   Clear
1:58 PM 84.0 °F 83.0 °F 55.9 °F 38% 30.16 in 10.0 mi ESE 8.1 mph - N/A   Clear
2:58 PM 84.9 °F 83.9 °F 57.0 °F 38% 30.14 in 10.0 mi Variable 4.6 mph - N/A   Partly Cloudy
3:58 PM 86.0 °F 85.0 °F 57.9 °F 38% 30.13 in 10.0 mi East 8.1 mph - N/A   Scattered Clouds
4:58 PM 84.0 °F 83.3 °F 57.0 °F 40% 30.13 in 10.0 mi East 5.8 mph - N/A   Partly Cloudy
5:58 PM 82.0 °F 82.4 °F 60.1 °F 47% 30.14 in 10.0 mi ENE 3.5 mph - N/A   Clear
6:58 PM 73.9 °F - 63.0 °F 68% 30.14 in 10.0 mi ENE 3.5 mph - N/A   Clear
7:58 PM 68.0 °F - 64.0 °F 87% 30.15 in 10.0 mi Calm Calm - N/A   Clear
8:58 PM 66.9 °F - 64.0 °F 90% 30.18 in 10.0 mi Calm Calm - N/A   Partly Cloudy
9:58 PM 72.0 °F - 61.0 °F 68% 30.19 in 10.0 mi East 5.8 mph - N/A   Partly Cloudy
10:58 PM 73.0 °F - 63.0 °F 71% 30.20 in 10.0 mi East 4.6 mph - N/A   Overcast
11:58 PM 73.9 °F - 62.1 °F 66% 30.19 in 10.0 mi East 9.2 mph - N/A   Partly Cloudy